Location: Kuffner-Sternwarte
(48.2130°N, 16.2960°E)
Time: 01:25:49
(UTC+02:00)

COROT - Pass Details

Date: 21 July 2018
Orbit: 602 x 887 km, 90.0° (Epoch: 16 July)

Event Time Altitude Azimuth Distance (km) Brightness Sun altitude
Rises 04:08:24 0° 117° (ESE) 3,485 9.6 -9.6°
Reaches altitude 10° 04:12:20 10° 91° (E) 2,536 9.4 -9.1°
Maximum altitude 04:14:40 13° 67° (ENE) 2,330 9.7 -8.8°
Drops below altitude 10° 04:17:00 10° 42° (NE) 2,503 10.4 -8.6°
Sets 04:20:49 0° 15° (NNE) 3,396 10.5 -8.1°
